Dewpoint
-15 -16 -16 -17 -18 -19 -21 -22 -23 -23 -23 -22 -20 -19 -17 -18 -18 -18 -18 -16 -15 -15 -15 -16 -18 -18 -15 -9 -8 -12 -14 -15 -14 -14 -13 -9 -6 -5 -4 -3 -3 -3 -2 -3 -3 -3 -3
-10 -11 -12 -13 -15 -17 -19 -21 -22 -23 -23 -23 -22 -21 -20 -19 -18 -18 -18 -17 -15 -14 -14 -15 -16 -17 -13 -9 -7 -7 -11 -13 -14 -13 -13 -7 -5 -4 -3 -2 -3 -2 -2 -3 -3 -3 -3
-5 -5 -6 -6 -9 -13 -18 -20 -22 -22 -21 -22 -22 -21 -20 -19 -18 -18 -18 -17 -16 -15 -13 -14 -15 -15 -12 -12 -9 -10 -12 -12 -13 -11 -11 -8 -4 -4 -3 -2 -2 -2 -2 -3 -3 -4 -4
-14 -11 -10 -10 -8 -11 -16 -19 -20 -22 -21 -21 -21 -20 -20 -18 -17 -18 -18 -18 -16 -15 -13 -13 -13 -9 -9 -9 -10 -11 -11 -11 -12 -11 -10 -5 -4 -4 -3 -3 -5 -4 -5 -3 -4 -3 -4
-4 -10 -14 -15 -15 -14 -15 -18 -19 -20 -21 -20 -20 -20 -20 -19 -17 -17 -18 -17 -16 -14 -13 -12 -12 -10 -6 -9 -9 -10 -11 -10 -11 -11 -8 -4 -5 -4 -4 -5 -6 -6 -7 -5 -4 -2 -3
7 6 3 -3 -10 -15 -15 -16 -17 -18 -19 -20 -19 -19 -19 -19 -18 -17 -17 -17 -16 -13 -12 -12 -8 -7 -6 -7 -7 -9 -10 -10 -11 -10 -7 -6 -8 -6 -6 -9 -10 -9 -5 -7 -6 -1 -2
9 8 8 5 2 -5 -12 -15 -16 -16 -17 -18 -19 -19 -18 -19 -19 -18 -18 -16 -13 -8 -6 -11 -8 -7 -6 -5 -7 -7 -8 -10 -8 -8 -9 -6 -8 -8 -7 -8 -11 -10 -8 -8 -9 -2 -1
9 9 8 9 7 3 -3 -11 -15 -14 -15 -16 -16 -18 -18 -18 -18 -19 -18 -16 -13 -10 -9 -8 -8 -6 -6 -6 -6 -5 -6 -8 -6 -7 -8 -8 -7 -11 -10 -7 -8 -10 -9 -9 -8 -1 -1
10 9 8 9 9 7 5 -0 -9 -12 -12 -14 -15 -15 -17 -17 -18 -19 -18 -16 -15 -12 -8 -6 -5 -5 -6 -7 -5 -4 -6 -4 -5 -4 -7 -9 -9 -5 -6 -6 -6 -7 -7 -8 -8 -5 -2
9 9 9 8 9 9 8 6 4 -3 -8 -10 -11 -14 -15 -17 -18 -14 -15 -16 -15 -14 -8 -9 -3 -3 -4 -4 -4 -5 -4 -4 -5 -4 -6 -6 -5 -5 -4 -5 -7 -7 -8 -7 -6 -6 -5
3 5 7 8 9 9 8 9 7 6 2 -2 -9 -10 -13 -16 -19 -19 -16 -16 -15 -6 -5 -6 -2 -4 -4 -4 -4 -4 -7 -5 -5 -5 -6 -7 -4 -4 -4 -6 -6 -7 -7 -7 -7 -6 -7
0 -0 0 4 7 9 9 9 9 8 7 4 -0 -7 -11 -15 -18 -18 -18 -15 -10 -4 -6 -3 -4 -5 -5 -4 -5 -5 -7 -6 -6 -7 -8 -8 -6 -6 -5 -5 -6 -6 -7 -5 -4 -5 -3
-12 -9 -8 -0 7 9 9 8 9 9 9 8 6 2 -6 -12 -17 -14 -15 -10 -6 -2 -9 -4 -2 -5 -7 -5 -4 -6 -7 -8 -6 -6 -7 -7 -6 -5 -5 -5 -6 -10 -10 -3 -2 -0 -3
-12 -12 -10 -8 4 8 8 8 8 8 8 9 8 7 3 -7 -16 -17 -10 -9 -9 -8 -8 -5 -4 -5 -6 -6 -6 -6 -5 -6 -8 -8 -6 -4 -3 -4 -6 -7 -5 -7 -9 -2 -3 1 -2
-11 -10 -10 -7 -4 5 5 8 8 8 8 8 8 8 7 3 -15 -18 -7 -7 -6 -8 -7 -4 -5 -5 -5 -6 -6 -6 -6 -6 -8 -7 -8 -4 -6 -8 -8 -8 -7 -5 -5 -8 -6 -6 -4
-8 -10 -9 -9 -0 5 6 6 6 7 7 5 7 7 7 4 -12 -12 -8 -9 -10 -9 -5 -5 -5 -6 -7 -5 -6 -6 -6 -8 -7 -8 -11 -9 -7 -8 -9 -9 -9 -5 -8 -4 -4 -2 -2
-0 -2 -6 -8 -8 -8 1 6 5 4 5 5 7 6 5 3 -4 -4 -6 -9 -11 -13 -6 -6 -5 -7 -8 -5 -6 -6 -7 -9 -7 -7 -10 -10 -8 -9 -9 -7 -5 -6 -5 -7 -6 -5 -2
-1 -1 0 -2 -6 -7 -9 -7 1 3 6 7 6 4 4 -1 -1 -1 -3 -9 -13 -7 -5 -5 -8 -9 -7 -7 -5 -7 -7 -9 -8 -9 -8 -11 -9 -7 -7 -14 -14 -8 -7 -8 -3 -5 -6
-4 -2 -0 0 -1 -6 -7 -11 0 5 6 6 6 4 3 -1 1 -0 -5 -5 -7 -5 -4 -4 -4 -6 -8 -7 -6 -7 -8 -8 -8 -9 -8 -10 -10 -7 -8 -8 -12 -12 -10 -9 -8 -7 -6
-3 -4 -4 0 1 -1 -5 -7 -11 1 4 6 4 4 1 0 0 1 -1 -2 -2 -5 -4 -5 -4 -6 -7 -8 -9 -7 -8 -8 -8 -9 -8 -11 -9 -7 0 -2 -9 -11 -12 -8 -7 -4 -6
-2 -2 -3 -4 0 1 -2 -5 -6 -7 4 5 4 4 3 2 1 1 1 1 3 1 -2 -4 -2 -4 -5 -5 -7 -7 -6 -8 -9 -7 -9 -10 -8 -9 -9 -9 -11 -11 -11 -9 -7 -8 -6
-1 -1 -2 -3 -3 1 1 -3 -5 -4 -0 4 3 3 2 2 2 2 1 2 3 3 2 2 0 -0 -1 -0 -2 -4 -5 -7 -7 -7 -8 -9 -6 -8 -8 -9 -8 -7 -9 -11 -10 -9 -9
-3 -1 -2 -3 -3 -1 1 -1 -4 -5 1 3 4 3 3 2 1 2 2 2 2 2 2 2 2 2 2 2 0 0 0 -1 -2 -5 -7 -7 -7 -1 2 -10 -8 1 -7 -8 -9 -8 -9
-2 -1 -1 -3 -5 -0 1 1 -2 -4 -4 2 3 3 2 1 2 2 2 2 2 1 2 -0 -0 1 -1 -1 -1 -1 -2 -2 -2 -3 -2 -2 -1 1 1 -4 2 -1 -10 -9 -7 -7 -10
-2 -0 -1 -3 -1 -1 -1 1 0 -2 -1 1 2 2 1 1 1 1 2 2 1 0 -0 -1 -1 -2 -1 -1 -1 -0 -1 -0 -2 -4 -4 -7 -0 0 1 0 -2 -7 -10 -9 -9 -8 -10
-2 -0 -1 -2 -2 0 1 2 1 -1 -2 0 1 2 2 1 1 1 1 1 1 -0 -1 -2 -3 -3 -2 -1 1 2 2 1 -2 -3 -7 -4 -2 1 -2 0 1 -6 -12 -13 -14 -8 -12
-1 -0 -1 -2 -3 -0 1 1 1 2 0 -0 2 2 2 1 1 1 1 1 0 -1 -1 -3 -4 -4 -3 -1 1 1 1 -1 -1 -3 -6 -3 -3 -0 -1 -1 -2 -8 -13 -15 -7 -5 -12
-1 -1 -2 -6 -1 -1 -0 -1 -1 -0 2 1 1 2 1 1 0 1 0 -0 -1 -1 -1 -3 -3 -4 -3 -1 0 0 0 -2 -2 -4 -6 -3 -2 -2 -1 -1 -1 -13 -14 -12 -11 -12 -13
-0 -4 -10 -12 -10 -5 -2 -2 -2 -1 1 1 1 0 1 1 -0 -1 -1 -2 -2 -2 -2 -3 -3 -3 -3 -2 -2 -1 -1 -3 -2 -1 -12 -3 -3 -2 -2 -2 -10 -14 -14 -14 -14 -13 -13
Wind_Speed
7 9 10 10 9 8 9 10 11 10 9 7 6 6 8 10 11 11 11 10 9 8 7 6 6 5 4 4 4 5 5 4 3 2 0 1 1 3 4 3 2 4 3 6 7 11 15
7 8 9 11 14 12 10 10 10 10 10 9 9 9 8 9 10 12 11 10 9 9 8 7 6 5 4 2 6 7 6 4 3 3 1 2 2 5 7 4 4 3 10 10 5 8 9
7 7 9 12 10 13 15 14 12 11 11 11 11 9 9 9 9 11 11 11 10 10 9 8 6 5 6 7 6 7 5 4 2 1 1 3 4 3 5 5 7 6 4 2 3 5 4
13 10 10 10 12 12 12 13 16 14 12 11 13 13 11 10 9 10 11 11 10 9 8 7 5 5 4 6 6 5 4 3 1 1 2 4 6 6 4 11 5 4 4 2 2 6 3
13 16 17 14 12 12 12 13 12 15 16 14 12 13 14 13 11 10 10 10 10 8 7 6 6 5 4 4 4 4 2 1 2 3 4 5 5 5 6 5 4 5 3 4 2 7 4
15 15 16 17 20 17 14 13 12 13 14 16 16 13 13 14 14 12 10 9 9 8 7 6 8 5 5 3 4 4 3 2 3 6 6 4 3 4 3 3 5 6 4 4 4 6 4
14 15 17 17 15 18 21 18 16 14 13 14 15 17 15 14 14 14 11 8 7 5 7 6 4 4 4 4 5 4 3 4 5 4 3 2 4 6 10 7 2 5 4 3 3 4 4
19 18 16 16 17 17 17 18 19 19 17 14 14 15 16 15 15 14 11 6 7 5 8 12 13 12 9 6 4 5 5 6 4 4 4 5 6 5 4 5 3 3 2 3 2 3 4
22 21 19 18 16 16 18 18 17 18 20 18 16 14 15 17 15 13 9 6 6 6 4 4 8 5 5 7 4 6 6 5 3 5 5 6 2 5 4 4 5 3 4 4 3 2 2
15 18 19 19 18 17 17 18 17 17 18 19 18 16 14 14 14 8 7 4 3 4 4 4 3 3 5 4 3 5 7 4 1 8 7 4 1 4 3 3 5 2 2 2 4 3 3
19 20 22 20 20 18 18 19 20 18 17 18 18 18 16 13 12 11 7 4 1 2 4 1 3 4 5 5 4 3 5 4 5 5 5 4 5 4 3 3 5 4 3 4 2 4 2
21 20 19 21 22 21 21 19 19 19 20 19 18 17 18 15 13 12 7 4 2 6 7 3 4 5 3 3 3 5 3 4 4 4 2 1 0 1 3 2 2 7 5 6 4 2 2
22 22 22 19 19 21 23 23 21 19 19 20 20 18 15 15 12 9 6 5 4 5 2 3 4 4 4 6 4 5 5 4 6 4 4 0 2 1 3 5 3 3 5 2 3 2 6
24 23 22 22 21 21 20 20 21 20 20 20 22 22 18 14 13 12 8 3 6 6 7 4 3 1 5 7 4 5 5 4 4 4 3 6 5 8 4 4 6 6 6 5 6 4 3
26 25 24 24 22 20 22 23 21 21 21 21 22 25 24 18 15 13 8 4 8 8 5 9 5 4 4 4 5 5 7 6 9 12 10 6 5 1 0 1 3 5 5 2 5 3 2
24 25 26 25 24 22 19 19 21 18 11 17 23 20 27 21 15 15 3 11 6 5 5 4 10 8 8 5 5 6 8 5 5 10 2 6 2 0 2 1 1 3 3 3 1 4 5
23 24 24 25 26 26 25 23 23 21 20 17 21 7 10 13 15 8 7 8 7 14 9 8 10 6 6 9 9 6 5 3 4 5 3 5 3 1 3 8 9 3 3 1 2 4 5
21 23 23 23 24 25 24 23 21 20 19 21 16 2 8 13 5 6 8 5 5 6 14 7 3 8 10 9 8 8 9 7 13 15 9 6 5 5 7 1 1 2 7 7 5 6 2
24 24 22 22 21 22 23 22 18 14 17 18 6 7 11 21 4 5 6 5 5 3 5 6 7 8 5 9 4 9 8 1 16 10 10 9 4 1 4 1 2 6 6 4 4 3 7
23 25 25 22 21 20 19 20 19 16 13 17 7 2 4 14 8 4 6 9 9 4 6 4 2 2 1 5 5 5 7 1 6 6 2 6 4 7 10 5 6 6 7 6 6 4 5
24 24 25 25 21 21 18 18 16 17 10 16 6 2 4 3 6 9 2 3 6 9 4 4 4 6 5 5 2 5 2 2 1 4 3 4 7 4 2 1 2 4 5 11 13 13 10
26 25 25 23 22 21 18 16 15 16 11 17 7 4 2 5 6 5 7 3 8 7 4 6 13 6 3 5 2 2 2 1 1 2 5 1 2 2 1 4 2 5 8 8 15 10 12
28 27 25 24 23 21 18 16 14 14 15 13 14 12 4 4 1 2 4 6 5 4 9 15 6 9 11 10 12 6 4 3 1 1 3 2 3 3 4 3 5 10 9 20 12 6 11
27 27 26 26 24 23 18 16 15 13 19 21 14 7 4 3 6 5 4 6 6 7 5 4 5 4 2 6 13 11 9 4 7 5 8 5 6 3 2 0 5 4 2 2 4 3 3
26 27 26 23 19 22 19 19 15 12 15 21 21 13 8 3 8 7 10 8 6 7 4 5 6 5 14 5 1 2 1 2 3 1 2 2 4 4 4 4 8 2 4 5 6 4 6
26 27 26 23 21 20 19 20 15 12 12 19 23 17 12 1 7 16 4 4 3 2 0 2 3 9 7 2 2 5 5 3 3 1 1 2 2 2 3 4 6 3 2 2 3 5 7
24 25 25 25 24 24 21 17 15 13 13 17 19 20 18 7 5 6 4 4 5 3 1 2 3 6 6 2 2 3 3 1 4 7 5 3 1 8 4 3 6 1 4 5 5 4 11
22 26 26 25 22 25 27 25 25 22 17 17 20 20 17 7 8 8 9 6 4 3 2 7 3 5 2 3 3 3 3 3 3 3 5 6 7 4 3 2 7 6 5 4 1 6 16
23 23 21 20 19 17 20 29 30 28 22 16 19 19 19 17 6 7 9 9 8 6 2 9 3 2 5 2 2 1 2 2 1 2 2 4 3 4 5 2 1 10 2 1 5 18 15
Wind_Direction
349 342 340 340 341 345 343 341 340 338 336 333 331 330 330 330 334 336 338 338 336 335 331 318 304 292 288 290 276 306 306 299 278 273 244 172 109 111 106 83 65 76 122 80 125 132 119
334 335 331 336 333 330 332 332 330 329 328 328 329 327 329 329 330 331 331 331 329 327 323 321 306 291 281 286 281 294 291 290 289 262 228 157 124 116 104 69 61 86 102 115 114 120 126
310 312 317 317 322 326 326 324 322 324 326 323 320 318 321 322 324 326 327 325 322 320 318 317 306 293 281 269 284 297 280 272 277 266 179 137 137 102 112 93 110 119 78 91 131 149 139
323 317 315 311 314 318 318 321 320 317 317 321 319 316 313 313 317 321 323 320 317 313 312 306 294 291 273 275 270 285 287 263 276 169 149 130 126 107 76 116 49 64 55 122 200 158 152
345 337 330 322 316 313 314 316 318 318 318 314 315 314 313 312 312 315 317 315 311 306 296 291 280 278 262 264 254 271 272 223 155 139 134 129 131 92 115 88 32 10 209 206 259 200 138
348 344 340 336 327 318 312 310 312 314 313 315 313 314 312 311 311 311 309 307 298 291 271 272 254 274 247 236 245 259 261 198 152 144 128 143 98 77 49 97 216 199 209 232 225 207 160
329 331 334 330 333 329 321 316 311 309 309 311 313 313 314 310 311 308 305 311 287 268 237 228 218 241 235 243 259 256 233 186 154 151 141 66 100 200 207 186 139 143 180 210 222 176 147
308 316 316 322 321 324 322 318 315 314 311 308 310 310 311 312 310 310 304 309 292 283 297 247 245 244 248 243 244 225 205 187 171 166 125 37 232 217 150 164 170 175 171 250 280 136 168
297 301 304 309 310 313 317 318 314 313 311 308 307 308 309 310 307 304 297 299 301 314 280 260 231 233 223 217 230 204 193 178 149 143 176 163 233 132 140 143 159 197 183 195 212 97 184
291 295 300 300 305 302 307 309 313 313 309 307 305 304 305 307 302 291 285 293 312 336 39 261 216 233 189 188 247 194 186 181 140 189 162 224 186 155 145 179 138 223 204 129 143 107 227
281 283 288 293 291 294 298 301 304 308 310 311 307 305 301 300 291 292 286 286 290 30 356 190 174 170 183 192 148 188 175 175 169 167 116 247 166 162 161 194 172 203 84 93 69 102 56
281 285 291 287 284 280 286 289 293 300 304 306 307 305 301 296 288 277 264 240 171 52 259 216 159 169 152 214 191 150 172 145 120 110 42 198 147 151 167 93 91 149 80 48 61 75 318
275 277 278 282 279 279 281 279 287 290 293 299 299 298 294 289 282 279 232 198 42 150 301 239 224 174 192 192 209 183 171 175 160 119 213 159 213 167 156 94 32 93 87 325 341 3 230
275 275 275 272 270 267 273 281 281 283 286 287 290 287 286 277 271 255 215 30 200 231 207 132 102 70 203 166 217 183 148 212 228 110 126 165 286 175 180 195 177 178 167 171 226 207 248
276 276 277 276 273 275 269 267 277 283 283 284 287 287 279 276 254 232 208 223 210 203 190 151 124 183 244 231 176 161 210 216 202 176 177 157 259 80 125 149 136 188 195 174 106 64 53
282 279 277 276 275 272 270 274 274 273 273 305 289 284 282 262 234 206 180 229 238 239 137 145 185 170 193 196 183 184 186 206 215 193 178 196 144 227 121 82 8 177 164 86 7 213 248
289 288 285 280 276 274 269 269 271 273 281 297 284 268 262 241 203 221 222 223 248 245 205 175 200 195 214 175 183 206 228 262 183 152 149 142 128 167 124 202 179 151 202 85 139 170 203
285 285 293 289 288 283 282 276 272 262 267 274 254 265 226 182 148 210 247 206 235 242 218 250 216 198 187 189 193 206 211 225 170 147 166 199 138 180 194 147 69 220 200 169 157 213 221
289 280 282 290 289 288 284 282 270 267 265 261 232 220 211 181 200 218 263 264 263 273 230 203 229 208 186 189 214 199 197 331 169 167 163 181 204 94 322 353 6 217 194 163 108 84 191
291 291 282 280 289 288 279 276 275 256 257 251 251 159 171 191 243 281 252 255 255 280 282 248 245 329 192 220 250 222 207 143 189 194 181 150 182 188 213 180 129 193 189 181 156 143 185
284 293 299 278 279 289 286 274 267 261 239 249 244 188 193 200 222 213 315 308 264 235 260 322 254 205 235 236 222 227 104 108 40 189 127 171 220 184 265 28 195 206 173 181 203 215 204
279 285 296 288 266 280 286 281 266 255 229 237 230 230 190 282 272 216 172 235 246 238 206 233 238 192 133 224 212 60 104 226 226 42 160 115 194 123 271 63 255 265 237 204 217 232 255
272 277 286 291 267 266 278 281 274 248 225 235 232 207 216 199 271 235 214 188 254 293 235 235 280 237 234 235 216 182 175 158 102 149 147 172 133 73 249 352 10 295 201 211 214 197 219
268 270 282 293 275 250 266 275 272 259 231 230 233 218 168 259 215 211 253 220 234 237 270 289 247 209 185 160 120 108 92 99 175 164 167 160 157 171 197 40 222 234 196 125 228 212 170
270 266 278 287 282 245 254 268 265 262 230 231 239 238 200 251 223 256 245 261 270 254 228 266 252 253 156 155 109 136 112 139 159 22 216 309 163 174 178 212 320 266 215 173 167 269 175
270 262 275 280 267 250 249 247 251 251 238 231 236 236 249 275 239 240 260 240 270 228 108 190 274 191 169 235 191 211 205 167 163 46 129 238 300 243 143 204 227 263 241 194 162 299 173
262 262 273 275 260 250 244 248 252 249 244 241 241 239 242 253 237 219 212 234 193 229 92 122 195 204 200 184 210 224 221 62 176 167 156 150 195 223 183 225 284 235 149 157 96 260 158
258 263 272 269 263 249 241 243 248 254 236 245 243 239 238 240 259 242 237 233 212 226 198 146 140 225 190 193 207 206 208 197 157 131 171 162 165 191 156 192 266 149 118 184 249 122 155
263 265 267 271 269 266 246 242 241 235 245 234 240 243 242 245 263 293 269 258 250 251 279 188 268 242 191 178 224 175 155 138 127 194 142 215 215 174 207 207 342 175 43 210 151 155 159
Height
1563 1563 1562 1560 1559 1557 1556 1555 1553 1551 1549 1546 1544 1543 1542 1541 1539 1538 1535 1534 1532 1531 1529 1528 1527 1527 1527 1527 1526 1525 1524 1524 1524 1524 1523 1523 1524 1525 1529 1530 1532 1534 1537 1538 1539 1540 1542
1562 1561 1561 1560 1560 1558 1556 1554 1553 1551 1549 1547 1545 1543 1540 1539 1538 1537 1535 1533 1532 1530 1529 1527 1526 1526 1527 1528 1525 1524 1524 1523 1523 1523 1523 1523 1524 1525 1528 1531 1533 1537 1538 1541 1542 1543 1544
1561 1560 1559 1559 1557 1557 1557 1555 1552 1550 1549 1547 1545 1542 1540 1538 1536 1535 1534 1532 1531 1529 1528 1527 1526 1525 1525 1526 1524 1524 1523 1523 1523 1523 1523 1524 1525 1526 1529 1532 1536 1538 1541 1542 1544 1544 1546
1563 1559 1558 1557 1556 1555 1554 1553 1554 1551 1548 1546 1545 1543 1540 1538 1535 1534 1532 1531 1529 1528 1527 1526 1525 1525 1524 1523 1523 1523 1523 1523 1522 1523 1524 1524 1525 1527 1529 1534 1537 1541 1544 1548 1542 1543 1546
1563 1562 1560 1558 1555 1553 1552 1552 1550 1551 1549 1546 1543 1542 1541 1538 1535 1532 1530 1529 1527 1526 1525 1525 1525 1525 1522 1522 1522 1522 1522 1522 1522 1523 1524 1525 1526 1529 1533 1538 1547 1549 1551 1548 1542 1542 1544
1562 1561 1559 1559 1557 1555 1552 1550 1548 1548 1547 1546 1544 1541 1539 1537 1535 1532 1530 1527 1526 1525 1524 1523 1523 1526 1522 1521 1521 1521 1521 1521 1522 1523 1525 1526 1527 1532 1537 1542 1552 1546 1548 1546 1543 1542 1543
1562 1560 1558 1557 1554 1554 1553 1551 1549 1546 1544 1543 1542 1541 1538 1536 1533 1532 1530 1528 1528 1525 1522 1520 1520 1519 1518 1519 1520 1520 1520 1521 1521 1522 1526 1526 1533 1537 1533 1534 1534 1539 1541 1539 1538 1539 1541
1561 1559 1557 1555 1554 1552 1550 1549 1548 1547 1545 1541 1539 1539 1538 1535 1533 1531 1529 1528 1527 1526 1519 1516 1516 1516 1517 1517 1519 1519 1521 1521 1520 1524 1525 1531 1534 1526 1527 1532 1533 1535 1537 1538 1537 1539 1542
1557 1556 1554 1553 1551 1550 1549 1547 1545 1544 1544 1541 1539 1536 1536 1535 1531 1530 1528 1525 1525 1525 1521 1514 1513 1514 1515 1517 1516 1517 1519 1519 1519 1523 1525 1529 1524 1523 1525 1530 1534 1535 1538 1538 1538 1539 1542
1554 1553 1551 1550 1549 1547 1546 1545 1544 1542 1541 1540 1538 1536 1534 1532 1534 1528 1527 1524 1523 1524 1531 1515 1513 1512 1513 1515 1516 1515 1516 1518 1518 1522 1525 1524 1522 1523 1526 1528 1532 1533 1533 1533 1537 1542 1548
1549 1548 1548 1547 1546 1545 1544 1542 1542 1540 1539 1537 1536 1535 1534 1532 1531 1529 1528 1525 1523 1524 1555 1513 1512 1512 1513 1515 1515 1514 1515 1516 1517 1519 1523 1523 1523 1524 1525 1525 1528 1531 1532 1534 1539 1546 1549
1545 1544 1542 1541 1541 1541 1540 1539 1538 1538 1537 1536 1534 1533 1532 1532 1531 1529 1527 1526 1525 1539 1547 1510 1509 1510 1513 1513 1513 1513 1514 1514 1516 1518 1520 1521 1521 1522 1523 1527 1527 1531 1535 1543 1549 1552 1561
1541 1539 1538 1537 1536 1536 1535 1535 1534 1534 1534 1533 1532 1531 1529 1529 1531 1529 1528 1528 1539 1546 1511 1510 1511 1510 1510 1512 1512 1511 1513 1514 1517 1528 1524 1522 1521 1521 1522 1528 1529 1530 1537 1551 1553 1562 1544
1537 1536 1534 1532 1531 1530 1530 1530 1530 1529 1529 1529 1527 1528 1527 1527 1527 1528 1529 1530 1531 1511 1505 1501 1507 1511 1510 1507 1508 1509 1511 1513 1510 1512 1528 1527 1527 1520 1519 1520 1523 1531 1532 1542 1533 1546 1535
1530 1530 1530 1528 1526 1526 1525 1525 1525 1527 1525 1524 1522 1521 1522 1523 1523 1525 1529 1537 1518 1507 1494 1498 1502 1508 1509 1504 1506 1508 1512 1508 1499 1501 1509 1521 1515 1517 1518 1519 1519 1529 1532 1527 1537 1550 1552
1525 1524 1523 1523 1523 1522 1521 1522 1521 1521 1521 1521 1519 1514 1516 1517 1518 1520 1524 1512 1505 1494 1491 1493 1496 1494 1501 1505 1507 1509 1505 1491 1491 1492 1493 1500 1510 1518 1519 1520 1521 1523 1523 1534 1540 1531 1533
1518 1518 1518 1518 1517 1516 1516 1516 1517 1517 1517 1518 1515 1512 1511 1511 1515 1520 1511 1508 1496 1489 1491 1491 1489 1492 1492 1494 1499 1504 1495 1486 1486 1493 1494 1498 1501 1521 1519 1519 1517 1525 1525 1527 1528 1531 1529
1513 1513 1513 1511 1512 1513 1512 1511 1511 1511 1513 1513 1511 1513 1508 1511 1517 1516 1507 1497 1491 1484 1484 1483 1483 1481 1486 1488 1492 1492 1487 1483 1481 1485 1495 1496 1505 1520 1510 1510 1511 1512 1512 1514 1520 1518 1534
1509 1508 1508 1507 1506 1507 1507 1506 1506 1507 1509 1509 1505 1505 1506 1508 1511 1508 1500 1492 1488 1484 1482 1480 1479 1476 1475 1479 1483 1481 1477 1476 1477 1480 1484 1489 1501 1517 1503 1511 1511 1511 1508 1509 1515 1520 1525
1504 1503 1503 1502 1502 1501 1501 1501 1501 1502 1503 1505 1504 1500 1504 1506 1505 1504 1496 1490 1488 1483 1481 1480 1477 1477 1475 1474 1473 1467 1474 1477 1477 1478 1480 1482 1490 1482 1475 1476 1491 1503 1499 1502 1501 1526 1503
1497 1498 1497 1497 1496 1496 1495 1496 1496 1497 1500 1501 1498 1492 1496 1497 1496 1497 1499 1494 1487 1483 1482 1479 1475 1472 1473 1471 1469 1470 1475 1478 1478 1478 1480 1482 1487 1488 1484 1483 1486 1484 1486 1494 1494 1484 1489
1493 1491 1491 1491 1491 1491 1490 1491 1492 1492 1495 1496 1495 1496 1491 1495 1492 1489 1489 1489 1486 1480 1481 1476 1476 1472 1472 1474 1469 1469 1474 1477 1473 1481 1480 1483 1482 1486 1482 1488 1490 1490 1486 1488 1484 1481 1482
1487 1487 1487 1484 1485 1486 1485 1487 1487 1489 1490 1489 1489 1489 1492 1489 1492 1489 1484 1479 1482 1478 1473 1471 1471 1471 1471 1468 1468 1470 1473 1476 1479 1481 1481 1484 1482 1489 1488 1492 1486 1481 1477 1471 1467 1472 1468
1479 1479 1480 1480 1479 1480 1481 1483 1483 1484 1484 1486 1486 1487 1488 1486 1487 1485 1481 1478 1474 1475 1476 1474 1473 1471 1469 1469 1468 1469 1472 1474 1476 1479 1479 1485 1489 1490 1490 1492 1485 1460 1476 1477 1473 1473 1478
1473 1472 1474 1473 1473 1474 1476 1478 1479 1479 1480 1481 1482 1483 1483 1481 1480 1477 1476 1474 1470 1471 1474 1474 1472 1471 1467 1471 1471 1471 1473 1470 1473 1482 1483 1482 1482 1485 1485 1487 1471 1469 1476 1475 1468 1464 1472
1466 1467 1468 1468 1468 1468 1470 1471 1473 1475 1476 1477 1478 1478 1480 1476 1471 1472 1474 1471 1473 1469 1469 1470 1472 1470 1469 1471 1465 1462 1457 1456 1470 1478 1484 1485 1483 1478 1488 1480 1473 1476 1474 1472 1472 1475 1472
1459 1460 1461 1462 1462 1462 1464 1466 1468 1470 1472 1472 1473 1475 1477 1474 1470 1471 1471 1470 1469 1468 1467 1470 1474 1475 1471 1468 1461 1460 1456 1463 1465 1469 1480 1483 1484 1474 1479 1479 1472 1473 1474 1474 1476 1473 1475
1453 1454 1455 1454 1454 1455 1457 1460 1463 1465 1466 1468 1469 1470 1472 1470 1468 1467 1468 1469 1466 1466 1465 1468 1474 1473 1469 1464 1461 1458 1458 1462 1465 1470 1472 1470 1475 1479 1479 1480 1476 1475 1478 1473 1475 1474 1475
1448 1448 1448 1448 1449 1449 1450 1453 1456 1459 1460 1462 1464 1466 1466 1469 1466 1464 1464 1465 1464 1465 1466 1466 1466 1465 1460 1459 1461 1456 1456 1464 1464 1460 1470 1472 1466 1468 1471 1469 1475 1476 1474 1475 1473 1473 1478